Other Public Products
Issued by NWS Grand Forks, ND

Home | Current Version | Previous Version | Graphics & Text | Print | Product List | Glossary On
Versions: 1 2 3 4 5 6 7 8 9 10 11 12 13 14 15 16 17 18 19 20 21 22 23 24 25 26 27 28 29 30 31 32 33 34 35 36 37 38 39 40 41 42 43 44 45 46 47 48 49 50
000
FPUS83 KFGF 160810
OPUFGF
PRAIRIE TO PINES WEATHER ROUNDUP
NATIONAL WEATHER SERVICE EASTERN NORTH DAKOTA/GRAND FORKS ND
300 AM CDT WED AUG 16 2017

 **SATELLITE DATA USED TO AUGMENT SKY COVER AT AUTOMATED STATIONS**
 *****  WEATHER ACROSS EASTERN NORTH DAKOTA  *****

CITY           SKY/WX    TMP DP  RH WIND       PRES   REMARKS
GRAND FORKS    CLOUDY    66  64  93 E6        29.87F
GRAND FORKS AF CLOUDY    64  62  94 E6        29.87F
GRAND CITY NWS NOT AVBL
BUXTON           N/A     64  63  97 E8          N/A
DEVILS LAKE    LGT RAIN  61  59  93 E13       29.86S
FARGO          CLOUDY    67  60  78 SE12      29.86F
WAHPETON ARPT  CLOUDY    63  59  88 SE5       29.88R
$$

 *****  WEATHER ACROSS CENTRAL AND WESTERN NORTH DAKOTA  *****

CITY           SKY/WX    TMP DP  RH WIND       PRES   REMARKS
JAMESTOWN      LGT RAIN  64  62  93 SE9       29.83R FOG
BISMARCK       CLOUDY    63  61  93 NW6       29.87R
MINOT          FOG       61  60  97 SW6       29.89R VSB 1/4
MINOT AFB      FOG       57  56  99 CALM      29.88S VSB 1/8
GARRISON         N/A     58  58 100 NW5       29.89S
WILLISTON      FAIR      58  55  90 CALM      29.92R
DICKINSON      FOG       60  60 100 NW8       29.91F VSB 1/4
HETTINGER      FOG       58  57  97 CALM      29.94S VSB 1/2
$$

 *****  OTHER OBSERVATIONS NORTHEAST NORTH DAKOTA  *****

CITY           SKY/WX    TMP DP  RH WIND       PRES   REMARKS
WALHALLA       FAIR      61  61 100 N3        29.89F
LANGDON        DRIZZLE   61  61 100 E5        29.90F
CAVALIER       PTSUNNY   61  61 100 SE3       29.89S
GRAFTON        PTSUNNY   63  63 100 NE7       29.90F FOG
CANDO          CLOUDY    61  61 100 E7        29.90S
FORT TOTTEN      N/A     61  61  99 E3        29.95S
ROLLA          CLOUDY    61  61 100 E6        29.91S
RUGBY          CLOUDY    61  61 100 E7        29.87F
 ***** THE ABOVE OBSERVATIONS ARE NON NWS ARE NOT QUALITY
        CONTROLLED AND MAY MIS-REPORT RAIN FOR SNOW...
$$

 *****  OTHER OBSERVATIONS SOUTHEAST NORTH DAKOTA *****

CITY           SKY/WX    TMP DP  RH WIND       PRES   REMARKS
COOPERSTOWN    CLOUDY    63  63 100 SE10      29.85S
VALLEY CITY      N/A     63  63 100 SE8       29.86R
OAKES          NOT AVBL
GWINNER        CLOUDY    63  63 100 SE8       29.85S
SHEYENNE NWR     N/A     63  63 100 SE7       29.95S
BUFFALO          N/A     62  59  91 W6          N/A
WYNDMERE       NOT AVBL
 ***** THE ABOVE OBSERVATIONS ARE NON NWS ARE NOT QUALITY
       CONTROLLED AND MAY MIS-REPORT RAIN FOR SNOW...
$$

  *****  WEATHER ACROSS NORTHERN MINNESOTA  *****

CITY           SKY/WX    TMP DP  RH WIND       PRES   REMARKS
FLAG ISLAND    MOCLDY    70  64  83 CALM      29.92S
WARROAD        CLOUDY    64  63  94 CALM      29.94S
ROSEAU         FAIR      64  59  82 CALM      29.93S
HALLOCK        LGT RAIN  64  63  94 CALM      29.89F
THF RVR FALLS  CLOUDY    66  59  78 E9        29.92F
HALSTAD        NOT AVBL
FOSSTON        CLOUDY    63  55  77 CALM      29.93F
BAUDETTE       CLOUDY    66  60  81 S8        29.95R
WASKISH        CLOUDY    64  61  88 SE3       29.96S
CROOKSTON      RAIN      66  61  82 SE9       29.89F
$$
  *****  WEATHER ACROSS CENTRAL AND WEST MINNESOTA  *****

CITY           SKY/WX    TMP DP  RH WIND       PRES   REMARKS
BEMIDJI        CLOUDY    65  60  86 SE5       29.95S
PARK RAPIDS    CLOUDY    65  58  78 SE6       29.93F
WADENA         MOCLDY    61  57  88 SE5       29.92S
DETROIT LAKES  DRIZZLE   64  59  82 SE9       29.92S
MOORHEAD       LGT RAIN  64  61  88 SE6       29.88R
FERGUS FALLS   FAIR      64  61  88 SE8       29.88S
ELBOW LAKE     FAIR      63  61  91 SE7       29.89S
MORRIS MN      MOCLDY    64  63  94 SE9       29.86F
STAPLES        FAIR      63  55  77 CALM      29.93S
WHEATON        CLOUDY    63  61  94 SE7       29.88S
$$
  *****  WEATHER ELSEWHERE ACROSS MINNESOTA  *****

CITY           SKY/WX    TMP DP  RH WIND       PRES   REMARKS
DULUTH         FAIR      57  56  96 E10       30.02S
INTRNTL FALLS  CLOUDY    64  56  75 S6        29.98R
ELY            FAIR      48  46  93 CALM      30.03S
CLOQUET        FAIR      59  55  88 E6        30.01R
BRAINERD       CLOUDY    64  59  83 CALM      29.95S
HIBBING        FAIR      54  50  86 SE5       30.00S
ALEXANDRIA     MOCLDY    63  60  90 SE10      29.92F
SAINT CLOUD    FAIR      62  60  93 E7        29.94S
MINNEAPOLIS    LGT RAIN  66  61  84 S12       29.97R
$$

  *****  WEATHER ACROSS SOUTH DAKOTA  *****

CITY           SKY/WX    TMP DP  RH WIND       PRES   REMARKS
SIOUX FALLS    CLOUDY    67  66  97 S7        29.86F
BROOKINGS      CLOUDY    66  64  93 S12       29.86S
WATERTOWN      CLOUDY    64  64 100 S6        29.85S FOG
HURON          CLOUDY    67  65  93 S12       29.84R
SISSETON         N/A     65  64  97 SE7       29.85R
ABERDEEN       CLOUDY    65  64  97 SE6       29.84R
MITCHELL       LGT RAIN  67  66  97 S7        29.85F FOG
PIERRE         MOCLDY    66  65  96 E3        29.81F
MOBRIDGE       CLOUDY    66  63  90 NW6       29.83R
RAPID CITY     FAIR      59  54  83 N9        29.95S
$$

  *****  SOME WEATHER IN NEARBY STATES *****

CITY           SKY/WX    TMP DP  RH WIND       PRES   REMARKS
GLASGOW MT     FAIR      59  39  47 E10       29.91R
GREAT FALLS MT NOT AVBL
CHEYENNE WY    FAIR      54  45  71 NW10      30.09R
SCOTTSBLUFF NE MOCLDY    60  57  89 W5        29.99F
OMAHA NE       CLOUDY    71  67  87 SE10      29.82F
DES MOINES IA  CLOUDY    70  68  93 E5        29.88R FOG
DAVENPORT IA   MOCLDY    68  65  90 E9        29.97R
CHICAGO IL     FAIR      68  62  81 NE5       29.98F
EAU CLAIRE WI  FAIR      63  57  81 E3        29.99R
LA CROSSE WI   LGT RAIN  68  63  84 E6        29.97S
$$

  *****  SOME NATIONAL WEATHER *****

CITY           SKY/WX    TMP DP  RH WIND       PRES   REMARKS
LA GUARDIA NY  MOCLDY    72  71  97 SW3       29.90F
RALEIGH NC     FAIR      76  74  93 CALM      29.95R
ATLANTA GA     MOCLDY    75  71  87 NW7       30.02S
NEW ORLEANS LA MOCLDY    77  76  96 CALM      30.00R
OKLAHOMA CITY  MOCLDY    73  71  93 S6        29.84S
ALBUQUERQUE NM FAIR      69  37  30 NW7       30.08S
SALT LAKE CITY FAIR      65  37  35 SE7       29.99R
LOS ANGELES CA CLOUDY    67  60  78 SW6       29.93S
BOISE ID       FAIR      66  37  34 E7        29.91R
SEATTLE WA     FAIR      63  48  58 N12       30.04R
$$

*** WEATHER ACROSS MANITOBA...SASKATCHEWAN AND ONTARIO ***
                ***ONTARIO***

CITY           SKY/WX    TMP DP  RH WIND       PRES   REMARKS
GERALDTON      CLEAR     46  43  87 SW5       30.06R
THUNDER BAY    PTCLDY    48  46  93 W3        30.06R
SIOUX LOOKOUT  MOCLDY    64  57  77 S6        29.97S
TORONTO        CLEAR     63  57  82 N10       29.99S
BIG TROUT LK   CLEAR     52  52 100 SW2       29.95R
PICKLE LAKE    NOT AVBL
DRYDEN         CLOUDY    66  57  72 S10       29.97R
KENORA         LGT RAIN  64  63  94 SE2       29.95R
$$
                *** MANITOBA***

CITY           SKY/WX    TMP DP  RH WIND       PRES   REMARKS
BRANDON        CLOUDY    61  61 100 S5        29.90R
DAUPHIN        MOCLDY    61  59  94 W5        29.85R
ISLAND LAKE    CLOUDY    66  57  72 SE6       29.89F
PILOT MOUND      N/A     59  57  94 SE3         N/A
THE PAS        MOCLDY    61  59  94 SE3       29.78F
THOMPSON       CLEAR     59  52  77 VRB2      29.82S
WINNIPEG       LGT RAIN  64  63  94 S5        29.92R
LYNN LAKE      MOCLDY    63  55  77 MISG      29.74F
CHURCHILL      CLEAR     63  57  82 SW8       29.79S
GILLAM         CLEAR     55  50  82 S5        29.86S
$$
                ***SASKATCHEWAN***

CITY           SKY/WX    TMP DP  RH WIND       PRES   REMARKS
ESTEVAN        PTCLDY    50  50 100 VRB2      29.91R
KINDERSLEY     PTCLDY    48  45  87 S6        29.89S
LLOYDMINSTER   CLEAR     48  45  87 W10       29.83S
PRINCE ALBERT  CLEAR     54  50  87 SW8       29.79S
REGINA         CLEAR     48  45  87 S3        29.90R
YORKTON        CLEAR     55  52  88 S6        29.88R



USA.gov is the U.S. government's official web portal to all federal, state and local government web resources and services.